Regional Weather Roundup
Issued by NWS

Home | Current Version | Previous Version | Graphics & Text | Print | Product List | Glossary On
Versions: 1 2 3 4 5 6 7 8 9 10 11 12 13 14 15 16 17 18 19 20 21 22 23 24 25 26 27 28 29 30 31 32 33 34 35 36 37 38 39 40 41 42 43 44 45 46 47 48 49 50
000
ASUS45 KBOU 110207
RWRCO

WEATHER ROUNDUP FOR COLORADO
NATIONAL WEATHER SERVICE DENVER/BOULDER CO
700 PM MST WED FEB 10 2016

NOTE: "FAIR" INDICATES FEW OR NO CLOUDS BELOW 12000 FEET WITH NO
SIGNIFICANT WEATHER AND/OR OBSTRUCTIONS TO VISIBILITY.

COZ001>005-013-030-031-110300-
...NORTHWEST COLORADO...

CITY           SKY/WX    TMP DP  RH WIND       PRES   REMARKS
CRAIG          CLOUDY    18  14  84 CALM      30.37R
HAYDEN         CLOUDY    25  14  63 E8        30.35S WCI  16
MEEKER         CLOUDY    26  18  71 CALM      30.35R
MOUNT WERNER   NOT AVBL
STEAMBOAT SPGS CLOUDY    24  17  74 S3        30.36R
WALDEN         CLOUDY    30  10  43 S7        30.33R WCI  23
$$

COZ006>008-011-110300-
...WEST CENTRAL VALLEYS...

CITY           SKY/WX    TMP DP  RH WIND       PRES   REMARKS
GRAND JUNCTION CLOUDY    31  28  89 N3        30.39R
MONTROSE       CLOUDY    34  24  67 SE3       30.41R
EAGLE          CLEAR     30  19  64 E9        30.36F WCI  22
RIFLE          CLOUDY    31  21  66 CALM      30.38R
DELTA          CLOUDY    36  28  74 E8        30.38S
NUCLA          CLOUDY    43  25  49 CALM      30.40S
$$

COZ017>023-064>068-110300-
...SOUTHWEST COLORADO...

CITY           SKY/WX    TMP DP  RH WIND       PRES   REMARKS
DURANGO        CLOUDY    36  21  54 N8        30.36R
CORTEZ         CLOUDY    32  25  75 NE8       30.36R WCI  25
PAGOSA SPRINGS CLOUDY    34  22  61 CALM      30.38S
TELLURIDE      CLOUDY    37   9  31 SE8       30.47R
WOLF CREEK PAS CLOUDY    32  -6  19 NW6       30.53S WCI  26
$$

COZ009-010-012-014-032>034-037-058>063-110300-
...CENTRAL COLORADO...

CITY           SKY/WX    TMP DP  RH WIND       PRES   REMARKS
ASPEN          CLOUDY    28  15  58 SW9       30.39R WCI  19
BUENA VISTA    CLOUDY    42  10  27 W8        30.33R
COPPER MTN     NOT AVBL
BERTHOUD PASS  NOT AVBL
COTTONWOOD PAS CLOUDY    39  -2  17 W10G18    30.40R
GUNNISON       CLOUDY     3  -2  78 NE7       30.48R WCI  -9
KREMMLING      CLOUDY     5   0  78 CALM      30.40F
LEADVILLE      CLOUDY    31   2  29 NW9       30.40R WCI  23
MONARCH PASS   CLOUDY    28   1  31 SW20      30.57S WCI  15
SALIDA         NOT AVBL
SUNLIGHT       NOT AVBL
WILKERSON PASS CLOUDY    32  -4  21 W12G23    30.43R WCI  23
$$

COZ069>075-110300-
...SAN LUIS VALLEY/SANGRE DE CRISTO MOUNTAINS...

CITY           SKY/WX    TMP DP  RH WIND       PRES   REMARKS
ALAMOSA        CLOUDY    34  22  61 N7        30.34R WCI  28
LA VETA PASS   CLOUDY    32   9  37 MISG      30.37F
SAGUACHE       CLOUDY    32  21  64 N6        30.37R WCI  26
$$

COZ035-036-038>040-110300-
...NORTHERN COLORADO FRONT RANGE...

CITY           SKY/WX    TMP DP  RH WIND       PRES   REMARKS
DENVER INTL AP CLOUDY    55  12  18 NW14      30.17R
DMNS CITY PARK   N/A     58   5  12 W15G28    30.15R
AURORA         NOT AVBL
FRONT RANGE AP MOCLDY    45  19  36 MISG      30.17R
ERIE MUNI ARPT CLOUDY    52  14  22 N6        30.15R
BOULDER MUN AP CLOUDY    57   9  14 W13G20    30.14S
CENTENNIAL     CLOUDY    55  10  16 NW20G26   30.17R
BROOMFIELD     MOCLDY    54   9  16 W17G23    30.17R
FORT COLLINS   CLOUDY    52  14  22 NW5       30.16R
LONGMONT       CLOUDY    52  17  25 E8        30.16R
$$

COZ041-046-047-076>085-087-088-110300-
...PIKES PEAK/PALMER DIVIDE AND SOUTHERN FOOTHILLS...

CITY           SKY/WX    TMP DP  RH WIND       PRES   REMARKS
COLO. SPRINGS  CLOUDY    55   9  16 NW14      30.19R
A. F. ACADEMY  CLOUDY    41  21  44 NE8       30.20R
SCHRIEVER AFB  MOCLDY    54  10  17 NW14G23   30.19R
ELLICOTT       CLOUDY   N/A N/A N/A N6        30.17R
FALCON         NOT AVBL
FORT CARSON    MOCLDY    55  13  19 W12       30.15R
LIMON          CLOUDY    39  26  59 N9        30.15R
MONUMENT HILL  CLOUDY    43  16  33 NW7       30.24R
TRINIDAD       CLEAR     53   2  12 NW9       30.18S
$$

COZ042>045-048>051-090-091-110300-
...NORTHEAST COLORADO...

CITY           SKY/WX    TMP DP  RH WIND       PRES   REMARKS
GREELEY ARPT   CLOUDY    39  27  60 NW12      30.14R
AKRON          CLOUDY    42  25  50 N17       30.12R
BURLINGTON     CLOUDY    38  29  70 W7        30.11R
WRAY           NOT AVBL
STERLING       CLOUDY    43  28  56 N16       30.10R
HOLYOKE        CLOUDY    46  28  49 W15G22    30.08R
FORT MORGAN    CLOUDY    44  23  43 N22       30.13R
$$

COZ086-089-092>099-110300-
...SOUTHEAST COLORADO...

CITY           SKY/WX    TMP DP  RH WIND       PRES   REMARKS
PUEBLO         CLOUDY    54  18  24 NW9       30.12R
LA JUNTA       CLEAR     53  20  27 SW12      30.06S
LAMAR          CLEAR     42  27  55 S10       30.02R
SPRINGFIELD      N/A     37  14  38 W8        30.09R
$$



USA.gov is the U.S. government's official web portal to all federal, state and local government web resources and services.